Weather History for Modesto, CA

Change the Weather History Date:

Monday, January 7, 2013

  Actual Average Record
Temperature  
Mean Temperature 44 °F -  
Max Temperature 52 °F 54 °F 69 °F (1959)
Min Temperature 36 °F 40 °F 24 °F (1937)
Degree Days  
Heating Degree Days 21 18  
Month to date heating degree days 155 127  
Since 1 July heating degree days 1017 1024  
Cooling Degree Days 0 0  
Month to date cooling degree days 0 0  
Year to date cooling degree days 0 0  
Moisture  
Dew Point 40 °F    
Average Humidity 82    
Maximum Humidity 100    
Minimum Humidity 63    
Precipitation  
Precipitation 0.00 in 0.08 in 0.57 in (1993)
Month to date precipitation 1.13 0.54  
Year to date precipitation 1.13 0.54  
Since 1 July precipitation 7.01 4.90  
Snow  
Snow 0.00 in - 0.00 in (2002)
Month to date snowfall 0.0  
Since 1 July snowfall 0.0  
Snow Depth 0.00 in    
Sea Level Pressure  
Sea Level Pressure 30.21 in    
Wind  
Wind Speed 3 mph (NE)    
Max Wind Speed 17 mph    
Max Gust Speed 29 mph    
Visibility 5 miles    
Events Fog    
T = Trace of Precipitation, MM = Missing Value Source: NWS Daily Summary

Daily Weather History Graph

Daily Weather History Graph

Search for Another Location

Airport:

Trip Planner

Search our weather history database for the weather conditions in past years. The results will help you decide how hot, cold, wet, or windy it might be!

Date:

Astronomy

Jan. 07, 2013 Rise Set
Actual Time 7:19 AM PST 5:01 PM PST
Civil Twilight 6:50 AM PST 5:30 PM PST
Nautical Twilight 6:17 AM PST 6:03 PM PST
Astronomical Twilight 5:45 AM PST 6:34 PM PST
Moon 2:50 AM PST (1/7) 1:15 PM PST (1/7)
Length of Visible Light 10h 40m
Length of Day
9h 42m
Waning Crescent, 21% of the Moon is Illuminated
Jan 7
Waning Crescent
Jan 11
New
Jan 18
First Quarter
Jan 26
Full
Feb 3
Last Quarter

Hourly Weather History & Observations

Time (PST) Temp. Windchill Dew Point Humidity Pressure Visibility Wind Dir Wind Speed Gust Speed Precip Events Conditions
12:53 AM 43.0 °F 38.8 °F 39.9 °F 89% 30.14 in 9.0 mi Variable 6.9 mph - N/A   Clear
1:53 AM 42.1 °F 37.7 °F 41.0 °F 96% 30.15 in 7.0 mi NW 6.9 mph - N/A   Clear
2:53 AM 41.0 °F 38.0 °F 39.9 °F 96% 30.15 in 6.0 mi NW 4.6 mph - N/A   Clear
3:53 AM 39.9 °F 37.8 °F 39.0 °F 97% 30.17 in 6.0 mi North 3.5 mph - N/A   Clear
4:53 AM 39.0 °F - 37.9 °F 96% 30.17 in 6.0 mi Calm Calm - N/A   Clear
5:22 AM 37.4 °F - 37.4 °F 100% 30.18 in 1.8 mi Calm Calm - N/A   Clear
5:39 AM 37.4 °F - 37.4 °F 100% 30.19 in 3.0 mi Calm Calm - N/A   Clear
5:53 AM 39.0 °F 34.0 °F 37.9 °F 96% 30.19 in 7.0 mi NNW 6.9 mph - N/A   Clear
6:53 AM 37.9 °F - 37.0 °F 97% 30.21 in 4.0 mi Calm Calm - N/A   Clear
7:06 AM 37.4 °F - 35.6 °F 93% 30.21 in 2.5 mi Calm Calm - N/A   Partly Cloudy
7:12 AM 37.4 °F - 37.4 °F 100% 30.21 in 0.5 mi Calm Calm - N/A Fog Fog
7:13 AM 37.4 °F - 37.4 °F 100% 30.21 in 0.2 mi Calm Calm - N/A Fog Fog
7:35 AM 37.4 °F - 37.4 °F 100% 30.22 in 0.2 mi Calm Calm - N/A Fog Fog
7:53 AM 37.9 °F - 37.9 °F 100% 30.24 in 0.2 mi Calm Calm - N/A Fog Fog
8:53 AM 41.0 °F - 41.0 °F 100% 30.25 in 0.2 mi Calm Calm - N/A Fog Fog
9:53 AM 41.0 °F - 41.0 °F 100% 30.26 in 0.2 mi Calm Calm - N/A Fog Fog
10:11 AM 41.0 °F - 41.0 °F 100% 30.27 in 0.8 mi Calm Calm - N/A   Overcast
10:53 AM 42.1 °F 39.2 °F 41.0 °F 96% 30.27 in 2.5 mi ESE 4.6 mph - N/A   Overcast
11:06 AM 42.8 °F - 41.0 °F 93% 30.27 in 1.5 mi Calm Calm - N/A   Overcast
11:08 AM 42.8 °F - 41.0 °F 93% 30.27 in 2.5 mi Calm Calm - N/A   Overcast
11:53 AM 45.0 °F - 43.0 °F 93% 30.24 in 5.0 mi Calm Calm - N/A   Mostly Cloudy
12:13 PM 46.4 °F - 42.8 °F 87% 30.23 in 7.0 mi Calm Calm - N/A   Scattered Clouds
12:53 PM 48.9 °F - 43.0 °F 80% 30.21 in 9.0 mi Calm Calm - N/A   Scattered Clouds
1:53 PM 50.0 °F - 42.1 °F 74% 30.20 in 10.0 mi Calm Calm - N/A   Clear
3:53 PM 52.0 °F - 39.9 °F 63% 30.21 in 10.0 mi NE 4.6 mph - N/A   Clear
4:53 PM 48.9 °F - 42.1 °F 77% 30.18 in 10.0 mi Calm Calm - N/A   Clear
5:53 PM 46.0 °F - 41.0 °F 83% 30.19 in 9.0 mi Calm Calm - N/A   Clear
6:53 PM 45.0 °F - 41.0 °F 86% 30.19 in 7.0 mi Calm Calm - N/A   Clear
7:53 PM 43.0 °F 41.3 °F 41.0 °F 93% 30.20 in 7.0 mi ESE 3.5 mph - N/A   Clear
8:53 PM 39.9 °F - 39.0 °F 97% 30.20 in 5.0 mi Calm Calm - N/A   Clear
9:53 PM 39.0 °F - 37.9 °F 96% 30.20 in 3.0 mi Calm Calm - N/A   Clear
10:00 PM 39.2 °F - 39.2 °F 100% 30.19 in 2.0 mi Calm Calm - N/A   Clear
10:11 PM 39.2 °F 37.0 °F 39.2 °F 100% 30.20 in 5.0 mi ESE 3.5 mph - N/A   Clear
10:53 PM 39.0 °F 35.7 °F 37.9 °F 96% 30.21 in 5.0 mi ESE 4.6 mph - N/A   Clear
11:53 PM 39.9 °F - 37.9 °F 93% 30.22 in 6.0 mi Calm Calm - N/A   Clear